User: anonymous   Login
Location: Unspecified
(0.0000°N, 0.0000°E)
Time: 10:06:57
(UTC+01:00)
Language:

Gurwin Techsat 1B - Orbit

View from above orbital plane
View from above orbital plane
View from above satellite
View from above satellite

Ground track
Ground track

The orbit data is extracted from the following two-line orbital elements,

1 25397U 98043D   18023.81255837 -.00000005 +00000-0 +16948-4 0  9991
2 25397 098.6358 326.7550 0002405 083.2182 276.9270 14.23638429014965
Epoch (UTC): 23 January 2018 19:30:05
Eccentricity: 0.0002405
inclination: 98.6358°
perigee height: 811 km
apogee height: 815 km
right ascension of ascending node: 326.7550°
argument of perigee: 83.2182°
revolutions per day: 14.23638429
mean anomaly at epoch: 276.9270°
orbit number at epoch: 1496

The dashed part of the orbit path shows where the satellite is in the earth's shadow,  

DLR